Regional Weather Roundup
Issued by NWS Nashville, TN

Home | Current Version | Previous Version | Text Only | Print | Product List | Glossary On
Versions: 1 2 3 4 5 6 7 8 9 10 11 12 13 14 15 16 17 18 19 20 21 22 23 24 25 26 27
000
ASUS44 KOHX 260510
RWROHX
MIDDLE TENNESSEE HOURLY WEATHER ROUNDUP
NATIONAL WEATHER SERVICE NASHVILLE TN
1200 AM CDT MON JUN 26 2017

NOTE: "FAIR" INDICATES FEW OR NO CLOUDS BELOW 12,000 FEET WITH
NO SIGNIFICANT WEATHER AND/OR OBSTRUCTIONS TO VISIBILITY.

* THESE REPORTS ARE NOT UNDER NWS QUALITY CONTROL AND MAY NOT
  REPORT WEATHER SUCH AS PRECIPITATION AND FOG.


TNZ005>011-023>034-057-059-062>066-078-080-260600
...NORTHERN MIDDLE TENNESSEE...

CITY           SKY/WX    TMP DP  RH WIND       PRES   REMARKS
CLARKSVILLE    CLEAR     62  56  80 CALM      30.17S
CROSSVILLE     CLEAR     55  51  86 CALM      30.23F
GALLATIN       CLEAR     61  57  88 CALM      30.20S
NASHVILLE      CLEAR     64  56  75 S5        30.18S
PORTLAND       CLEAR     61  57  88 CALM      30.17S
SMYRNA         CLEAR     62  56  80 SE5       30.19S
SPARTA         CLEAR     55  55 100 CALM      30.19S
SPRINGFIELD    CLEAR     61  57  88 S3        30.16F
WEST NASHVILLE CLEAR     63  59  88 CALM      30.15F
$$
TNZ056-058-060-061-075>077-079-093>097-260600
...SOUTHERN MIDDLE TENNESSEE...

CITY           SKY/WX    TMP DP  RH WIND       PRES   REMARKS
COLUMBIA       CLEAR     59  59 100 CALM      30.17F
FAYETTEVILLE   CLEAR     64  55  72 CALM      30.19F
MCMINNVILLE    CLEAR     57  57 100 CALM      30.20F
MURFREESBORO   CLEAR     64  56  75 CALM      30.18S
PULASKI        CLEAR     57  57 100 CALM      30.19S
SHELBYVILLE    CLEAR     59  57  94 E5        30.19S
TULLAHOMA      CLEAR     57  54  88 CALM      30.21S
WINCHESTER     CLEAR     55  55 100 CALM        N/A
$$


...KEY TO REMARKS...
VSB - VISIBILITY IN MILES
WCI - WIND CHILL INDEX
HX  - HEAT INDEX





USA.gov is the U.S. government's official web portal to all federal, state and local government web resources and services.